User: anonymous   Login
Location: Lawrence Hall of Science
(37.8785°N, 122.2415°W)
Time: 14:27:51
(UTC-07:00)
Language:

NOSS 3-1 (C) - Orbit

View from above orbital plane
View from above orbital plane
View from above satellite
View from above satellite

Ground track
Ground track

The orbit data is extracted from the following two-line orbital elements,

1 26907U 01040C   15244.89413034 0.00000000  00000-0  00000-0 0    00
2 26907  63.4213 259.9864 0314000 358.2531   1.7469 13.41237425    02
Epoch (UTC): 01 September 2015 21:27:32
Eccentricity: 0.0314000
inclination: 63.4213°
perigee height: 870 km
apogee height: 1339 km
right ascension of ascending node: 259.9864°
argument of perigee: 358.2531°
revolutions per day: 13.41237425
mean anomaly at epoch: 1.7469°
orbit number at epoch: 0

The dashed part of the orbit path shows where the satellite is in the earth's shadow,  

DLR